Content
SEND FEEDBACK

Daily
Averages
Monthly
Summary
India

KANPUR, INDIA


Home > Asia > India
Elevation: 123 meters     Latitude: 26 24N     Longitude: 080 24E

WEATHER
 
SELECT A DAY
Number of Records: 207,441;   Date Range: 7/2/96 - 4/21/13
 
SHARE

PRINT THIS DATA

[ ← Previous Day ]
WEATHER ALMANAC - 31 JANUARY, 2013
[ Next Day → ]
[ °F ]   °C
Weather ElementAverageHighLow
Temperature14.3 °C23 °C (3:00 pm)7 °C (7:30 am)
Dewpoint9.2 °C12.2 °C (11:30 am)7 °C (7:30 am)
Humidity73.7 %100 % (7:00 am)38 % (3:00 pm)
Barometer1017.6 hPa1020 hPa (8:30 am)1016.3 hPa (4:00 am)
Wind Speed3.1 km/h7.4 km/h (5:00 am)
Weather ElementAverage
Visibility1.3 km
Wind DirectionESE (113.9 °)

Weather ElementTotal
Precipitation---
Heating Degree Days3.3 (Base 18.3)
Growing Degree Days5 (Base 10)
Averaged from 28 records on 31 January, 2013
WEATHER CONDITIONS BREAKOUT
WIND DIRECTION BREAKOUT
WEATHER BY HOUR - 31 JANUARY, 2013
[ °F ]   °C
Local TimeTemperatureDewpointHumidityBarometerVisibilityWind DirectionWind SpeedGust SpeedPrecipitationEventsConditions
2:00 AM10 °C8 °C87 %1017.3 hPa0.6 kmCalmFogShallow Fog
2:30 AM9.4 °C8.3 °C91 %1017.9 hPa0 kmCalmFogPatches of Fog
3:00 AM9 °C8 °C93 %1017.3 hPa0.3 kmCalmFogFog
4:00 AM9 °C8 °C93 %1016.3 hPa0.2 kmCalmFogFog
5:00 AM9 °C8 °C93 %1016.3 hPa0.2 kmWest (270°)7.4 km/hFogFog
6:00 AM9 °C8 °C93 %1017.3 hPaWest (270°)3.7 km/hFogFog
7:00 AM8 °C8 °C100 %1017.9 hPaWest (270°)3.7 km/hFogFog
7:30 AM7 °C7 °C100 %1017.9 hPaWest (270°)3.7 km/hFogFog
8:00 AM8 °C7 °C93 %1017.9 hPaCalmFogFog
8:30 AM8.3 °C7.8 °C93 %1020 hPa0 km°3.7 km/hFogHeavy Fog
8:30 AM8 °C8 °C100 %1017.9 hPaVariable3.7 km/hFogFog
9:00 AM9 °C8 °C93 %1019 hPa0.2 kmCalmFogFog
10:30 AM17 °C12 °C72 %1019 hPa1 kmVariable3.7 km/hFogShallow Fog
11:00 AM18 °C12 °C68 %1017.9 hPa1.1 kmNNW (340°)5.6 km/hFogShallow Fog
11:30 AM20.6 °C12.2 °C49 %1019.3 hPa1.6 km°3.7 km/hHaze
12:30 PM22 °C12 °C53 %1017.9 hPa1.4 kmNW (320°)5.6 km/hHaze
1:00 PM22 °C11 °C50 %1017.3 hPa1.4 kmNW (320°)7.4 km/hHaze
3:00 PM23 °C8 °C38 %1016.3 hPa1.9 kmVariable3.7 km/hHaze
4:30 PM22 °C8 °C41 %1016.3 hPa3.1 kmWNW (290°)7.4 km/hHaze
5:00 PM22 °C8 °C41 %1016.3 hPa2.6 kmWest (270°)5.6 km/hHaze
5:30 PM21 °C10 °C49 %1016.3 hPa2.6 kmVariable3.7 km/hHaze
5:30 PM21.1 °C10 °C38 %1016.6 hPa1.6 km°3.7 km/hHaze
7:00 PM18 °C9 °C56 %1016.3 hPa1.9 kmVariable3.7 km/hHaze
7:30 PM17 °C9 °C59 %1016.3 hPa1.9 kmVariable3.7 km/hHaze
9:00 PM15 °C10 °C72 %1017.3 hPa1.4 kmCalmMist
10:00 PM14 °C11 °C82 %1017.9 hPa1.4 kmVariable3.7 km/hMist
11:00 PM13 °C10 °C82 %1017.3 hPa1.4 kmCalmMist
11:30 PM12.2 °C10.6 °C84 %1018.6 hPa1.6 kmCalmMist
Hourly data recorded from VIKA, located 0 kilometers away from Kanpur, India







STORIES FROM OUR PARTNERS